Location: Foligno
(42.9600°N, 12.7050°E)
Time: 07:41:33
(UTC+01:00)

ISS - Pass Details

Date: 10 November 2018
Orbit: 401 x 409 km, 51.6° (Epoch: 21 November)

Event Time Altitude Azimuth Distance (km) Brightness Sun altitude
Exits shadow 05:58:02 14° 312° (NW) 1,258 -1.9 -10.7°
Maximum altitude 06:00:44 54° 29° (NNE) 498 -3.3 -10.2°
Drops below altitude 10° 06:03:58 10° 108° (ESE) 1,461 0.7 -9.6°
Sets 06:06:04 0° 113° (ESE) 2,320 2.2 -9.3°
